Kaltag, AK

10:23 PM AKDT on October 18, 2017 (GMT -0800)
Kaltag

Weather History for PAKV - January, 2013

Change the Weather History Date:

Thursday, January 24, 2013

  Actual Average (PAGA) Record (PAGA)
Temperature  
Mean Temperature -2 °F -  
Max Temperature 3 °F 0 °F 41 °F (1991)
Min Temperature -6 °F -17 °F -63 °F (1989)
Degree Days  
Heating Degree Days 66    
Moisture  
Dew Point -17 °F    
Average Humidity 45    
Maximum Humidity 52    
Minimum Humidity 37    
Precipitation  
Precipitation 0.00 in - - ()
Sea Level Pressure  
Sea Level Pressure 30.02 in    
Wind  
Wind Speed 15 mph (NE)    
Max Wind Speed 20 mph    
Max Gust Speed 30 mph    
Visibility 10 miles    
Events      
Averages and records for this station are not official NWS values.
T = Trace of Precipitation, MM = Missing Value Source: NWS Daily Summary

Daily Weather History Graph

Daily Weather History Graph

Search for Another Location

Airport or City:

Trip Planner

Search our weather history database for the weather conditions in past years. The results will help you decide how hot, cold, wet, or windy it might be!

Date:

Astronomy

Jan. 24, 2013 Rise Set
Actual Time 10:38 AM AKST 4:56 PM AKST
Civil Twilight 9:37 AM AKST 5:58 PM AKST
Nautical Twilight 8:35 AM AKST 6:59 PM AKST
Astronomical Twilight 7:38 AM AKST 7:56 PM AKST
Moon 2:54 PM AKST (1/24) 9:01 AM AKST (1/24)
Length of Visible Light 8h 20m
Length of Day
6h 17m
Waxing Gibbous, 95% of the Moon is Illuminated
Jan 24
Waxing Gibbous
Jan 26
Full
Feb 3
Last Quarter
Feb 9
New
Feb 17
First Quarter

Hourly Weather History & Observations

Time (AKST) Temp. Windchill Dew Point Humidity Pressure Visibility Wind Dir Wind Speed Gust Speed Precip Events Conditions
12:53 AM 3.0 °F -16.1 °F -11.9 °F 50% 29.84 in 10.0 mi NE 16.1 mph 25.3 mph N/A   Clear
1:53 AM 1.9 °F -16.2 °F -13.0 °F 50% 29.86 in 10.0 mi NE 13.8 mph - N/A   Clear
3:53 AM 1.0 °F -19.9 °F -13.0 °F 52% 29.88 in 10.0 mi NE 18.4 mph 26.5 mph N/A   Clear
4:53 AM -0.0 °F -20.1 °F -15.0 °F 49% 29.90 in 10.0 mi NE 16.1 mph 23.0 mph N/A   Clear
5:53 AM -0.0 °F -19.4 °F -16.1 °F 47% 29.91 in 10.0 mi NE 15.0 mph 24.2 mph N/A   Clear
6:53 AM -0.9 °F -22.4 °F -16.1 °F 49% 29.93 in 10.0 mi NE 18.4 mph 24.2 mph N/A   Clear
7:53 AM -0.9 °F -21.2 °F -17.0 °F 47% 29.95 in 10.0 mi NE 16.1 mph - N/A   Clear
8:53 AM -0.9 °F -22.4 °F -16.1 °F 49% 29.97 in 10.0 mi NE 18.4 mph - N/A   Clear
9:53 AM -0.9 °F -22.4 °F -17.0 °F 47% 29.98 in 10.0 mi NE 18.4 mph - N/A   Clear
10:53 AM -0.9 °F -21.2 °F -17.0 °F 47% 30.00 in 10.0 mi NE 16.1 mph - N/A   Clear
11:53 AM -0.9 °F -21.9 °F -17.0 °F 47% 30.02 in 10.0 mi NE 17.3 mph 26.5 mph N/A   Clear
12:53 PM -0.9 °F -19.9 °F -17.0 °F 47% 30.03 in 10.0 mi NE 13.8 mph 20.7 mph N/A   Clear
1:53 PM 1.0 °F -15.8 °F -17.0 °F 43% 30.04 in 10.0 mi NE 11.5 mph 24.2 mph N/A   Clear
2:53 PM 1.0 °F -19.9 °F -16.1 °F 45% 30.04 in 10.0 mi NE 18.4 mph 28.8 mph N/A   Clear
3:53 PM 1.0 °F -17.3 °F -17.0 °F 43% 30.06 in 10.0 mi NE 13.8 mph 26.5 mph N/A   Clear
4:53 PM 1.0 °F -20.4 °F -18.0 °F 41% 30.06 in 10.0 mi NE 19.6 mph 28.8 mph N/A   Clear
5:53 PM 1.0 °F -19.9 °F -18.9 °F 39% 30.09 in 10.0 mi NE 18.4 mph 23.0 mph N/A   Clear
6:53 PM 1.0 °F -18.7 °F -18.0 °F 41% 30.09 in 10.0 mi NE 16.1 mph - N/A   Clear
7:53 PM 1.0 °F -19.9 °F -18.0 °F 41% 30.11 in 10.0 mi NNE 18.4 mph 29.9 mph N/A   Clear
8:53 PM 1.0 °F -16.6 °F -18.9 °F 39% 30.12 in 10.0 mi NE 12.7 mph 23.0 mph N/A   Clear
9:53 PM 1.0 °F -14.0 °F -20.0 °F 37% 30.13 in 10.0 mi NE 9.2 mph - N/A   Clear
10:53 PM -0.0 °F -11.6 °F -20.9 °F 37% 30.14 in 10.0 mi ENE 5.8 mph - N/A   Clear
11:53 PM -6.0 °F - -20.9 °F 49% 30.15 in 10.0 mi Calm Calm - N/A   Clear
11:55 PM -5.8 °F - -20.2 °F 50% 30.14 in 10.0 mi Calm Calm - N/A   Clear